Temp
0 0 0 0 -0 -1 -1 -1 -2 -2 -2 -2 -2 -2 -3 -3 -3 -4 -4 -4 -4 -3 -3 -3 -3 -2 -2 -2 -2 -2 -2 -2 -2 -1 -1 -1 0 1 2 1 1 2 3
1 1 1 0 0 -0 -1 -1 -1 -2 -2 -2 -2 -2 -2 -3 -3 -3 -4 -4 -4 -3 -3 -3 -3 -3 -2 -2 -1 -1 -2 -2 -2 -2 -2 -2 -1 -1 0 1 1 1 2
1 1 1 1 0 0 -0 -1 -1 -1 -1 -2 -2 -2 -2 -3 -3 -3 -4 -3 -4 -4 -4 -3 -3 -3 -2 -2 -1 -1 -2 -2 -2 -2 -2 -2 -2 -2 -1 -0 1 1 1
2 1 1 1 0 0 -0 -1 -1 -1 -1 -1 -2 -2 -2 -2 -3 -3 -3 -3 -3 -4 -4 -3 -3 -3 -3 -2 -2 -2 -2 -1 -1 -2 -2 -2 -2 -2 -2 -1 -1 0 1
2 2 1 1 1 0 -0 -0 -0 -1 -1 -1 -1 -1 -2 -1 -2 -2 -3 -3 -3 -3 -4 -3 -3 -4 -4 -3 -2 -2 -2 -2 -2 -1 -1 -2 -2 -2 -2 -2 -2 -2 -1
2 2 1 1 2 1 1 0 0 -0 -1 -1 -1 -1 -1 -2 -1 -2 -3 -3 -3 -3 -3 -4 -3 -3 -3 -3 -3 -2 -3 -2 -1 -2 -2 -3 -2 -2 -2 -2 -3 -3 -3
2 2 2 2 2 2 1 1 1 0 -0 -1 -1 -1 -1 -2 -2 -2 -3 -3 -3 -3 -3 -3 -3 -3 -3 -3 -3 -3 -3 -3 -3 -3 -3 -3 -3 -2 -2 -3 -3 -3 -3
3 3 3 2 2 2 2 2 1 1 1 0 0 -0 -1 -2 -2 -3 -3 -2 -2 -3 -3 -3 -3 -3 -3 -3 -3 -3 -3 -3 -4 -4 -4 -4 -4 -4 -4 -5 -4 -4 -3
3 3 3 3 2 2 2 2 2 1 1 1 0 -0 -0 -1 -3 -3 -3 -2 -2 -2 -2 -3 -3 -3 -3 -3 -3 -3 -4 -4 -5 -4 -4 -5 -4 -5 -5 -5 -4 -4 -4
3 3 3 3 2 2 2 1 1 1 1 1 0 0 0 -0 -1 -3 -3 -2 -2 -2 -2 -2 -2 -3 -4 -3 -4 -4 -4 -4 -3 -4 -4 -4 -5 -5 -5 -5 -5 -5 -5
3 3 3 2 2 2 2 2 2 1 1 1 0 1 0 0 -0 -0 -3 -2 -1 -2 -2 -2 -2 -4 -3 -3 -3 -4 -4 -4 -4 -4 -4 -4 -5 -5 -5 -5 -5 -5 -5
3 3 3 3 2 2 2 2 2 2 1 1 1 1 1 1 0 -0 -1 -1 -1 -1 -1 -2 -2 -2 -2 -2 -2 -3 -3 -4 -3 -3 -3 -4 -4 -4 -5 -5 -5 -5 -5
3 3 2 2 2 2 2 2 2 2 2 2 2 2 2 1 1 0 -0 -0 -0 -1 -1 -2 -2 -2 -2 -2 -2 -3 -3 -3 -3 -4 -4 -4 -4 -4 -5 -5 -5 -5 -5
3 3 2 2 2 2 2 2 2 2 2 2 2 2 2 1 1 0 0 0 -0 -1 -1 -1 -2 -2 -2 -2 -2 -2 -3 -3 -3 -3 -4 -4 -4 -4 -4 -4 -4 -5 -5
3 3 3 3 2 2 2 2 2 2 2 2 2 1 2 1 1 -0 -0 -0 -0 -1 -1 -1 -1 -1 -1 -2 -2 -2 -2 -2 -3 -2 -3 -3 -3 -3 -3 -4 -4 -4 -5
3 2 3 3 3 3 3 2 2 2 1 1 1 1 1 1 1 0 -1 -1 -1 -1 -1 -1 -1 -1 -1 -2 -2 -2 -2 -2 -2 -2 -2 -2 -2 -3 -3 -3 -3 -3 -4
3 2 2 2 2 2 2 2 2 1 1 1 1 1 -0 -0 -0 -0 -1 -1 -1 -2 -1 -1 -1 -1 -1 -2 -2 -2 -2 -2 -2 -2 -2 -2 -2 -2 -3 -3 -3 -4 -3
2 2 1 2 2 2 2 2 2 2 2 1 1 0 -0 -1 -1 -1 -2 -2 -2 -2 -2 -2 -2 -2 -1 -1 -1 -2 -2 -2 -2 -2 -2 -2 -2 -3 -3 -3 -3 -3 -3
1 1 1 1 1 1 1 1 1 1 1 1 0 -0 -1 -1 -1 -2 -2 -2 -2 -3 -3 -3 -2 -2 -2 -1 -1 -2 -2 -2 -2 -2 -2 -2 -2 -3 -3 -3 -3 -3 -4
0 0 0 1 1 1 1 0 0 0 -0 -0 -1 -1 -1 -1 -1 -2 -2 -3 -3 -4 -3 -3 -3 -2 -3 -3 -3 -2 -2 -2 -2 -2 -2 -2 -2 -2 -3 -3 -3 -3 -3
-0 -0 -0 0 0 0 0 -0 -0 -1 -1 -1 -2 -3 -3 -2 -2 -3 -3 -3 -4 -4 -3 -3 -4 -3 -3 -3 -3 -3 -3 -2 -2 -2 -2 -2 -2 -2 -2 -2 -2 -2 -3
-1 -1 -1 -1 -1 -1 -1 -1 -1 -1 -2 -2 -2 -3 -3 -3 -3 -3 -3 -4 -4 -4 -4 -4 -4 -4 -4 -4 -3 -3 -3 -2 -2 -1 -1 -1 -2 -2 -2 -2 -2 -2 -3
-2 -1 -2 -2 -1 -1 -1 -1 -1 -2 -2 -2 -2 -3 -3 -3 -4 -4 -4 -4 -4 -4 -4 -4 -4 -4 -4 -4 -4 -4 -3 -3 -2 -2 -2 -2 -2 -2 -2 -3 -3 -3 -3
-4 -4 -3 -2 -2 -2 -1 -2 -2 -2 -2 -2 -2 -3 -3 -3 -4 -4 -4 -4 -4 -5 -5 -5 -4 -4 -4 -4 -4 -4 -3 -3 -3 -3 -2 -2 -2 -2 -2 -2 -3 -3 -3
-4 -4 -4 -3 -2 -2 -2 -2 -2 -2 -2 -2 -2 -3 -3 -3 -4 -4 -4 -4 -5 -5 -4 -4 -4 -4 -4 -4 -4 -4 -4 -4 -3 -3 -2 -2 -2 -2 -2 -2 -2 -3 -3
-4 -4 -4 -4 -2 -3 -3 -3 -3 -3 -2 -2 -2 -3 -3 -4 -4 -4 -4 -4 -4 -4 -5 -4 -4 -4 -4 -4 -4 -4 -4 -4 -3 -3 -3 -3 -2 -2 -2 -3 -3 -3 -3
Height
1531 1528 1524 1520 1517 1514 1511 1507 1502 1497 1493 1489 1484 1480 1475 1470 1466 1461 1458 1454 1450 1446 1441 1437 1434 1431 1431 1430 1430 1428 1428 1429 1429 1430 1430 1430 1430 1431 1431 1433 1434 1436 1440
1530 1526 1523 1520 1517 1514 1511 1508 1503 1499 1494 1490 1486 1482 1477 1472 1467 1463 1459 1455 1451 1447 1443 1439 1435 1432 1430 1430 1429 1429 1429 1429 1429 1429 1429 1429 1429 1429 1430 1431 1433 1435 1436
1529 1526 1523 1520 1518 1514 1510 1507 1504 1499 1495 1491 1488 1483 1478 1474 1469 1465 1461 1456 1451 1448 1444 1441 1438 1434 1432 1430 1429 1428 1428 1428 1429 1428 1429 1428 1428 1427 1427 1428 1429 1431 1432
1529 1526 1524 1521 1518 1514 1511 1509 1502 1499 1496 1492 1488 1485 1480 1475 1470 1467 1462 1458 1453 1449 1445 1442 1439 1436 1434 1430 1428 1426 1426 1427 1428 1428 1428 1428 1427 1426 1426 1425 1426 1426 1428
1527 1526 1524 1520 1518 1514 1511 1505 1503 1500 1496 1493 1490 1487 1481 1476 1471 1469 1463 1459 1455 1451 1447 1444 1441 1438 1435 1433 1431 1429 1428 1427 1427 1427 1427 1426 1425 1425 1425 1424 1424 1425 1425
1526 1524 1524 1521 1517 1513 1510 1507 1503 1499 1498 1494 1489 1485 1481 1478 1474 1469 1464 1460 1456 1452 1448 1445 1442 1439 1436 1433 1430 1428 1428 1427 1426 1425 1425 1424 1424 1424 1424 1423 1423 1422 1422
1526 1523 1522 1518 1517 1513 1510 1507 1503 1500 1497 1494 1489 1483 1480 1477 1473 1469 1463 1459 1456 1452 1449 1446 1443 1440 1437 1434 1432 1429 1427 1426 1425 1424 1423 1422 1421 1421 1421 1421 1420 1419 1418
1524 1522 1520 1519 1515 1512 1510 1506 1503 1501 1498 1493 1488 1484 1480 1476 1472 1469 1465 1461 1457 1453 1450 1447 1445 1441 1438 1436 1433 1430 1428 1426 1425 1423 1422 1421 1420 1419 1418 1416 1415 1414 1414
1522 1521 1519 1517 1515 1513 1511 1507 1504 1501 1498 1493 1488 1485 1480 1475 1471 1471 1466 1462 1458 1454 1451 1448 1445 1443 1440 1436 1433 1431 1427 1425 1423 1422 1421 1420 1420 1418 1417 1414 1413 1411 1409
1520 1519 1518 1516 1514 1512 1510 1507 1504 1501 1497 1493 1490 1486 1481 1478 1473 1471 1468 1463 1459 1455 1452 1449 1446 1443 1440 1438 1434 1430 1427 1424 1421 1419 1418 1417 1416 1415 1414 1413 1411 1410 1408
1518 1517 1516 1515 1513 1511 1509 1507 1504 1501 1497 1495 1491 1486 1482 1477 1474 1469 1466 1462 1458 1456 1452 1449 1446 1443 1440 1437 1434 1431 1428 1424 1421 1418 1415 1413 1412 1412 1411 1410 1408 1407 1406
1516 1516 1514 1514 1512 1510 1509 1507 1505 1502 1499 1495 1491 1487 1483 1479 1475 1471 1467 1463 1460 1455 1452 1449 1446 1443 1440 1437 1434 1431 1428 1425 1422 1418 1415 1412 1410 1408 1407 1406 1405 1404 1403
1514 1514 1513 1513 1511 1510 1508 1505 1503 1501 1498 1495 1491 1487 1483 1479 1475 1472 1468 1465 1461 1456 1453 1449 1446 1443 1439 1437 1434 1431 1428 1425 1422 1418 1415 1412 1409 1406 1405 1403 1402 1401 1399
1511 1511 1511 1511 1510 1509 1506 1504 1502 1499 1496 1493 1489 1486 1482 1478 1474 1471 1468 1465 1461 1457 1453 1450 1446 1443 1440 1436 1433 1430 1427 1424 1421 1418 1415 1412 1409 1406 1403 1401 1399 1398 1395
1506 1506 1507 1507 1507 1506 1504 1502 1500 1497 1494 1491 1487 1484 1481 1478 1474 1471 1467 1464 1460 1457 1453 1450 1447 1443 1440 1436 1433 1429 1426 1424 1421 1418 1415 1412 1409 1406 1403 1400 1397 1395 1393
1502 1501 1502 1502 1502 1501 1500 1498 1496 1494 1492 1490 1487 1485 1482 1478 1474 1470 1467 1464 1460 1456 1452 1450 1446 1442 1439 1436 1432 1429 1425 1422 1419 1416 1414 1411 1408 1405 1403 1400 1397 1395 1391
1498 1498 1498 1498 1498 1497 1497 1495 1494 1492 1489 1487 1485 1482 1479 1476 1473 1469 1466 1463 1459 1456 1454 1450 1447 1443 1439 1435 1432 1428 1424 1421 1417 1415 1412 1409 1407 1404 1401 1398 1395 1392 1389
1493 1494 1494 1494 1494 1493 1492 1491 1490 1488 1487 1485 1483 1480 1476 1473 1470 1466 1463 1461 1459 1456 1453 1449 1446 1442 1439 1435 1431 1427 1424 1420 1417 1413 1410 1407 1404 1401 1399 1395 1392 1388 1384
1489 1490 1490 1490 1491 1490 1489 1488 1485 1483 1482 1481 1479 1477 1474 1471 1468 1464 1461 1458 1456 1453 1450 1447 1444 1441 1437 1434 1431 1427 1423 1419 1415 1412 1409 1405 1402 1399 1396 1392 1388 1385 1381
1485 1486 1487 1487 1486 1486 1485 1484 1483 1480 1478 1477 1476 1473 1470 1468 1465 1462 1459 1457 1454 1451 1447 1445 1442 1439 1436 1433 1430 1427 1423 1419 1415 1412 1408 1404 1401 1397 1393 1389 1385 1381 1377
1480 1481 1482 1482 1482 1482 1481 1481 1481 1480 1478 1476 1474 1471 1469 1465 1462 1459 1457 1454 1451 1448 1445 1443 1439 1436 1433 1432 1429 1425 1423 1419 1414 1411 1407 1403 1399 1396 1392 1388 1384 1379 1375
1475 1476 1477 1478 1478 1479 1478 1478 1477 1476 1475 1474 1472 1469 1467 1464 1461 1458 1456 1453 1450 1446 1443 1440 1437 1434 1431 1430 1427 1424 1421 1418 1414 1410 1406 1402 1398 1394 1391 1387 1382 1378 1373
1470 1471 1472 1474 1474 1474 1474 1473 1473 1472 1471 1469 1467 1465 1463 1461 1458 1455 1453 1450 1448 1445 1442 1439 1436 1433 1431 1429 1425 1422 1420 1417 1413 1409 1404 1400 1397 1393 1389 1385 1381 1376 1372
1467 1467 1468 1470 1471 1471 1470 1470 1469 1468 1466 1465 1464 1462 1460 1458 1455 1453 1450 1448 1446 1444 1441 1438 1435 1432 1429 1426 1424 1422 1419 1416 1412 1408 1404 1400 1396 1392 1388 1384 1380 1376 1371
1464 1465 1465 1466 1467 1468 1467 1466 1465 1463 1462 1462 1460 1459 1458 1455 1454 1452 1449 1447 1445 1443 1440 1437 1434 1431 1428 1425 1422 1420 1418 1415 1412 1408 1404 1400 1396 1392 1388 1384 1380 1376 1371
1459 1461 1462 1463 1464 1464 1464 1464 1463 1462 1461 1459 1458 1457 1455 1454 1453 1451 1448 1446 1444 1442 1439 1437 1433 1431 1427 1424 1422 1420 1418 1413 1411 1407 1403 1400 1396 1392 1388 1384 1380 1376 1372
Wind_Speed
12 12 12 13 11 13 15 17 18 20 16 18 21 17 16 16 19 20 20 21 19 17 17 15 16 8 7 4 6 6 5 5 7 9 9 8 7 9 10 10 14 18 17
11 11 11 12 10 12 14 16 16 18 15 16 19 20 20 17 18 19 15 17 16 17 18 15 16 15 6 6 6 6 5 5 6 6 6 6 6 7 8 12 17 16 18
8 9 10 11 11 12 13 15 15 15 15 12 14 18 18 20 24 22 15 16 16 14 15 14 17 13 10 8 7 7 7 5 5 5 6 8 9 9 8 10 12 17 21
7 9 10 11 11 12 13 14 13 14 15 14 11 14 17 15 19 23 18 16 17 14 13 13 17 15 13 16 11 3 4 4 4 5 7 8 10 8 10 8 10 14 17
5 8 9 11 12 12 12 12 13 14 14 15 13 9 14 18 13 24 19 16 16 16 13 11 13 13 17 13 10 7 10 4 6 8 9 11 10 11 9 9 11 12 14
4 6 8 10 11 12 13 13 13 13 14 15 15 13 10 13 14 21 20 17 15 16 13 13 14 14 18 19 12 5 2 6 5 4 8 10 10 11 10 11 15 14 16
3 5 6 8 10 11 13 13 13 13 14 15 16 15 13 8 14 15 17 16 15 14 11 11 14 13 12 15 14 12 9 0 5 8 8 8 12 16 15 18 17 16 17
3 4 5 6 8 9 11 12 13 14 15 15 16 16 14 11 13 15 17 14 14 14 12 11 12 13 13 14 15 12 10 7 6 4 5 6 8 11 15 16 15 18 19
4 4 4 5 7 8 9 11 12 13 14 15 16 16 16 15 13 14 17 14 14 14 12 10 10 13 12 14 17 15 13 10 8 7 6 7 7 10 9 12 12 14 15
6 5 5 4 5 6 8 10 11 12 13 13 14 16 17 17 17 14 17 18 16 15 13 12 10 12 11 10 15 15 18 15 13 8 8 9 10 10 12 12 12 12 10
8 7 6 6 5 5 6 7 9 10 11 12 14 15 16 17 17 17 15 18 19 17 15 15 13 12 12 11 9 10 12 16 14 12 10 9 11 12 13 13 13 14 14
9 8 7 7 6 7 7 7 8 9 10 11 12 13 14 16 17 17 17 17 17 17 16 15 15 14 13 12 11 10 11 13 12 13 13 11 9 9 11 14 16 16 15
11 9 8 8 8 8 8 8 8 9 10 11 12 13 14 15 16 17 18 18 18 18 17 16 15 14 13 12 12 11 11 12 13 14 15 14 13 11 9 7 8 12 15
13 11 9 9 9 9 10 10 10 10 11 11 12 13 14 16 16 18 18 18 17 16 16 16 15 14 13 13 11 12 12 13 14 14 13 14 14 12 10 10 9 9 13
15 13 11 10 10 10 11 11 11 12 13 13 14 16 17 16 18 18 18 18 18 17 16 14 13 14 14 13 12 12 12 11 12 13 13 13 13 13 11 10 9 10 12
18 16 14 13 12 11 11 11 14 13 13 14 16 17 16 17 18 18 17 17 17 16 16 16 16 17 18 18 18 16 14 14 12 12 13 13 12 11 12 11 12 14 14
18 18 17 15 14 13 13 13 12 12 14 14 15 16 16 17 17 17 17 17 17 16 15 15 16 17 18 18 18 19 18 17 15 14 13 13 14 13 14 14 16 18 19
19 19 18 17 16 15 14 14 15 15 15 14 14 16 16 16 17 18 18 16 15 15 16 16 15 15 17 19 19 19 18 18 16 15 14 14 14 16 17 18 19 21 22
20 19 18 17 16 15 15 15 15 15 16 17 16 14 15 15 16 17 19 19 18 17 16 14 14 14 13 15 20 19 18 19 19 18 16 16 16 17 17 18 19 18 19
20 19 19 18 17 16 15 15 15 15 15 15 16 16 16 15 16 17 18 18 17 15 16 15 14 13 14 12 12 19 19 18 18 17 17 17 17 17 18 19 19 20 20
19 19 20 18 16 16 15 15 15 15 15 14 15 15 16 18 18 19 19 18 18 18 17 15 15 14 15 12 13 13 17 19 18 17 17 18 19 19 18 19 19 20 21
19 18 18 16 15 14 14 14 13 14 14 14 15 16 16 17 17 17 17 17 16 16 16 16 15 15 16 14 14 14 14 20 20 18 18 18 19 19 18 19 19 19 20
17 15 14 13 13 13 13 13 13 14 14 15 16 16 16 16 16 15 16 16 16 16 15 15 15 14 14 13 13 13 15 18 21 20 20 19 19 20 19 19 19 20 20
15 14 13 13 13 13 12 13 14 14 15 15 15 15 13 13 13 13 14 14 14 14 14 15 15 15 14 12 13 10 12 15 20 20 18 19 18 18 19 19 19 19 19
16 15 14 13 13 12 12 12 13 12 12 11 11 11 10 10 9 11 12 13 14 14 14 15 14 14 14 14 13 10 12 12 19 19 17 17 17 17 17 18 18 18 18
16 14 13 12 12 10 9 8 8 8 6 5 6 7 8 9 10 11 13 14 14 15 15 15 14 14 15 14 13 11 14 12 16 19 19 17 17 16 16 16 17 17 17
Wind_Direction
10 11 11 12 12 13 12 14 16 17 20 16 13 6 10 13 16 18 17 23 22 13 12 15 14 359 349 360 5 359 354 338 316 309 303 310 290 245 221 222 208 216 224
13 9 12 15 18 14 13 13 15 19 20 15 13 12 18 15 9 11 7 358 358 7 16 18 2 9 344 355 348 332 333 325 312 319 342 350 342 314 271 246 235 219 222
13 10 11 17 18 11 9 10 13 16 20 11 14 8 17 19 14 4 358 2 6 9 15 30 17 17 27 338 283 304 306 315 323 308 318 327 325 319 298 262 251 248 240
10 9 9 11 10 3 1 1 358 5 11 18 9 8 8 15 17 7 8 6 12 13 16 29 33 30 13 17 18 2 274 290 281 303 297 306 317 330 332 302 263 255 249
2 3 8 7 6 357 356 353 355 357 0 6 11 15 8 17 19 356 6 7 9 12 17 26 23 16 29 19 10 40 15 348 269 279 285 292 295 293 315 321 310 281 266
343 356 6 4 4 358 359 356 350 354 2 1 6 5 11 21 15 349 0 7 8 13 34 33 21 28 29 27 21 18 334 349 312 291 278 278 283 285 284 307 300 303 287
327 340 360 9 6 1 3 2 1 4 4 3 3 2 5 12 20 347 348 355 6 15 21 20 18 15 15 18 15 7 11 296 325 290 277 275 281 277 283 287 284 277 275
278 314 343 5 6 10 9 12 16 16 15 12 9 8 7 6 25 350 360 3 9 15 20 13 11 21 10 360 356 2 2 0 350 338 325 306 291 288 288 292 287 283 273
253 282 311 347 8 16 17 19 22 23 18 12 10 13 13 11 26 6 1 0 5 5 6 6 3 12 7 340 344 348 347 344 322 307 284 271 280 289 290 295 302 302 285
246 265 291 314 343 9 16 17 16 17 13 11 12 14 13 13 10 19 359 357 3 2 1 1 1 11 359 356 337 349 353 352 353 337 298 281 278 278 282 291 294 298 299
245 257 276 292 310 330 347 357 359 5 1 2 7 8 10 9 11 16 9 1 4 1 354 357 358 358 354 358 346 349 347 345 350 346 332 309 289 279 276 279 283 282 284
244 256 269 278 294 309 322 331 338 340 347 354 358 3 4 7 5 11 9 6 1 359 359 358 354 351 347 350 357 357 349 350 352 355 358 354 330 293 279 276 274 275 276
243 253 267 279 286 296 308 318 323 330 337 345 353 355 356 3 3 8 8 3 2 360 0 359 354 354 352 352 352 353 354 359 1 1 357 356 359 356 343 323 295 282 279
237 249 260 273 283 294 301 307 312 317 320 329 340 349 352 355 356 1 1 359 358 360 3 1 357 354 354 355 355 352 352 352 355 355 356 358 356 347 342 335 334 317 308
234 241 250 262 272 282 292 298 300 304 313 322 334 338 342 345 347 350 347 351 354 355 359 357 4 10 11 9 6 359 355 352 353 353 352 351 353 359 359 354 349 340 334
235 239 246 253 261 270 278 287 299 306 312 316 319 323 329 332 331 334 341 343 346 348 350 356 4 6 6 6 4 4 0 354 348 347 349 349 348 344 345 351 346 341 332
239 241 247 253 259 266 275 284 286 284 300 304 308 314 320 323 323 324 331 335 337 339 347 357 2 4 2 2 0 360 358 356 349 342 336 333 330 331 330 327 324 322 320
242 243 248 255 260 266 272 277 286 293 295 295 301 308 312 318 322 324 326 332 329 337 349 353 357 358 1 359 357 357 357 355 353 349 342 336 331 329 328 323 320 318 318
245 246 250 255 263 269 276 279 284 291 298 304 309 310 309 315 318 319 320 328 334 339 341 347 348 349 348 0 357 356 356 356 354 351 350 346 342 339 339 335 332 331 327
246 248 250 255 260 267 274 280 286 291 296 303 311 316 316 321 323 325 330 335 339 340 338 341 343 339 337 346 349 356 356 355 355 354 351 347 346 344 345 344 342 339 339
248 250 250 254 259 265 272 280 289 295 301 307 313 315 318 324 329 332 335 340 340 338 342 342 337 334 332 341 343 338 358 356 354 354 352 351 350 347 348 350 347 345 342
249 249 246 250 256 264 274 283 291 295 301 307 311 312 317 322 326 332 337 339 342 340 341 339 338 335 331 345 338 344 348 352 355 354 354 353 351 350 348 349 351 350 347
249 243 239 246 252 261 271 280 288 294 298 302 307 309 315 320 326 337 342 343 345 344 345 343 343 342 341 343 332 341 344 348 352 352 352 352 352 350 351 350 351 354 354
241 246 239 245 254 261 271 281 288 293 297 303 307 309 316 323 330 343 348 351 351 351 351 352 352 349 349 340 338 341 346 346 349 351 349 350 352 352 351 352 354 356 356
228 235 247 241 250 258 268 276 284 290 298 307 313 320 332 337 342 352 0 3 1 360 1 1 359 355 350 348 348 342 336 336 346 349 351 352 352 354 353 354 356 359 0
223 229 243 248 242 254 267 280 292 304 320 335 344 355 4 9 12 14 15 13 12 8 8 7 4 358 356 355 354 348 348 343 349 348 351 354 354 357 359 360 360 3 5